Olbia, Italy

9:32 AM CEST on October 22, 2017 (GMT +0200)
Costa Smeralda

Weather History for LIEO - December, 2012

Change the Weather History Date:

Thursday, December 20, 2012

  Actual Average Record
Temperature  
Mean Temperature 45 °F -  
Max Temperature 57 °F 55 °F 65 °F (2014)
Min Temperature 33 °F 40 °F 33 °F (2002)
Degree Days  
Heating Degree Days 20    
Moisture  
Dew Point 41 °F    
Average Humidity 86    
Maximum Humidity 100    
Minimum Humidity 59    
Precipitation  
Precipitation 0.00 in 0.08 in - ()
Sea Level Pressure  
Sea Level Pressure 30.10 in    
Wind  
Wind Speed 3 mph ()    
Max Wind Speed 7 mph    
Max Gust Speed -    
Visibility 6.2 miles    
Events      
Averages and records for this station are not official NWS values.
T = Trace of Precipitation, MM = Missing Value Source: Averaged Metar Reports

Daily Weather History Graph

Daily Weather History Graph

Search for Another Location

Airport or City:

Trip Planner

Search our weather history database for the weather conditions in past years. The results will help you decide how hot, cold, wet, or windy it might be!

Date:

Astronomy

Dec. 20, 2012 Rise Set
Actual Time 7:42 AM CET 4:56 PM CET
Civil Twilight 7:11 AM CET 5:27 PM CET
Nautical Twilight 6:36 AM CET 6:02 PM CET
Astronomical Twilight 6:03 AM CET 6:35 PM CET
Moon 12:09 PM CET (12/20) 12:10 AM CET (12/20)
Length of Visible Light 10h 16m
Length of Day
9h 14m
First Quarter, 52% of the Moon is Illuminated
Dec 20
First Quarter
Dec 28
Full
Jan 5
Last Quarter
Jan 11
New
Jan 19
First Quarter

Hourly Weather History & Observations

Time (CET) Temp. Windchill Dew Point Humidity Pressure Visibility Wind Dir Wind Speed Gust Speed Precip Events Conditions
12:20 AM 39.2 °F 37.0 °F 37.4 °F 93% 30.18 in - SSW 3.5 mph - N/A   Clear
12:50 AM 41.0 °F 39.0 °F 39.2 °F 93% 30.18 in - SSW 3.5 mph - N/A   Clear
1:20 AM 37.4 °F - 35.6 °F 93% 30.18 in - Variable 1.2 mph - N/A   Clear
1:50 AM 37.4 °F 34.9 °F 37.4 °F 100% 30.18 in - SW 3.5 mph - N/A   Clear
2:20 AM 39.2 °F 35.9 °F 39.2 °F 100% 30.18 in - SW 4.6 mph - N/A   Clear
2:50 AM 39.2 °F 35.9 °F 37.4 °F 93% 30.18 in - SW 4.6 mph - N/A   Clear
3:20 AM 37.4 °F 34.9 °F 37.4 °F 100% 30.18 in - SW 3.5 mph - N/A   Clear
3:50 AM 33.8 °F 30.8 °F 32.0 °F 93% 30.15 in - SSW 3.5 mph - N/A   Clear
4:20 AM 37.4 °F 33.8 °F 35.6 °F 93% 30.15 in - SW 4.6 mph - N/A   Clear
4:50 AM 37.4 °F 33.8 °F 37.4 °F 100% 30.15 in - SW 4.6 mph - N/A   Clear
5:20 AM 33.8 °F - 33.8 °F 100% 30.15 in - SSW 2.3 mph - N/A   Clear
5:50 AM 33.8 °F 29.6 °F 33.8 °F 100% 30.15 in - SSW 4.6 mph - N/A   Clear
6:20 AM 35.6 °F 31.7 °F 35.6 °F 100% 30.15 in - SW 4.6 mph - N/A   Clear
6:50 AM 37.4 °F 33.8 °F 35.6 °F 93% 30.15 in - SW 4.6 mph - N/A   Clear
7:20 AM 37.4 °F 33.8 °F 37.4 °F 100% 30.15 in - SSW 4.6 mph - N/A   Clear
7:50 AM 35.6 °F 32.8 °F 35.6 °F 100% 30.15 in - SW 3.5 mph - N/A   Clear
8:20 AM 37.4 °F 33.8 °F 37.4 °F 100% 30.15 in - SW 4.6 mph - N/A   Clear
8:50 AM 39.2 °F - 39.2 °F 100% 30.15 in - Variable 2.3 mph - N/A   Clear
9:20 AM 41.0 °F - 39.2 °F 93% 30.15 in - SW 1.2 mph - N/A   Clear
9:50 AM 42.8 °F - 41.0 °F 93% 30.18 in - Variable 2.3 mph - N/A   Clear
10:20 AM 44.6 °F - 42.8 °F 93% 30.15 in - SSW 2.3 mph - N/A   Clear
10:50 AM 46.4 °F 45.2 °F 42.8 °F 87% 30.15 in - SW 3.5 mph - N/A   Clear
11:20 AM 50.0 °F - 44.6 °F 82% 30.15 in - Calm Calm - N/A   Clear
11:50 AM 51.8 °F - 44.6 °F 76% 30.15 in - Variable 1.2 mph - N/A   Clear
12:20 PM 53.6 °F - 44.6 °F 72% 30.12 in 6.2 mi Variable 2.3 mph - N/A   Partly Cloudy
12:50 PM 55.4 °F - 46.4 °F 72% 30.12 in 6.2 mi NE 5.8 mph - N/A   Partly Cloudy
1:20 PM 57.2 °F - 42.8 °F 59% 30.09 in 6.2 mi East 6.9 mph - N/A   Partly Cloudy
1:50 PM 55.4 °F - 42.8 °F 63% 30.06 in 6.2 mi East 6.9 mph - N/A   Partly Cloudy
2:20 PM 57.2 °F - 42.8 °F 59% 30.06 in 6.2 mi East 6.9 mph - N/A   Partly Cloudy
2:50 PM 55.4 °F - 42.8 °F 63% 30.06 in - East 6.9 mph - N/A   Clear
3:20 PM 55.4 °F - 42.8 °F 63% 30.06 in - ENE 5.8 mph - N/A   Clear
3:50 PM 53.6 °F - 42.8 °F 67% 30.06 in 6.2 mi ENE 4.6 mph - N/A   Partly Cloudy
4:20 PM 53.6 °F - 44.6 °F 72% 30.06 in - East 3.5 mph - N/A   Clear
4:50 PM 53.6 °F - 44.6 °F 72% 30.06 in - East 3.5 mph - N/A   Clear
5:20 PM 53.6 °F - 44.6 °F 72% 30.06 in 6.2 mi ESE 3.5 mph - N/A   Scattered Clouds
5:50 PM 51.8 °F - 44.6 °F 76% 30.04 in 6.2 mi Variable 2.3 mph - N/A   Scattered Clouds
6:20 PM 51.8 °F - 44.6 °F 76% 30.04 in 6.2 mi Calm Calm - N/A   Scattered Clouds
6:50 PM 51.8 °F - 44.6 °F 76% 30.04 in 6.2 mi Variable 2.3 mph - N/A   Scattered Clouds
7:20 PM 50.0 °F - 44.6 °F 82% 30.01 in 6.2 mi WSW 3.5 mph - N/A   Scattered Clouds
7:50 PM 50.0 °F - 44.6 °F 82% 30.01 in 6.2 mi Calm Calm - N/A   Scattered Clouds
8:20 PM 50.0 °F - 44.6 °F 82% 30.01 in 6.2 mi Calm Calm - N/A   Scattered Clouds
8:50 PM 50.0 °F - 46.4 °F 87% 30.01 in 6.2 mi Variable 2.3 mph - N/A   Scattered Clouds
9:20 PM 50.0 °F - 46.4 °F 87% 30.01 in 6.2 mi Variable 2.3 mph - N/A   Light Drizzle
9:50 PM 48.2 °F - 46.4 °F 93% 29.98 in 6.2 mi Variable 1.2 mph - N/A   Scattered Clouds
10:20 PM 48.2 °F - 46.4 °F 93% 29.98 in 6.2 mi Calm Calm - N/A   Scattered Clouds
10:50 PM 48.2 °F - 46.4 °F 93% 29.98 in 6.2 mi Calm Calm - N/A   Light Drizzle